Temperature
13 13 13 13 13 13 13 13 13 13 13 13 13 13 13 13 14 14 14 14 14 14 14 14 14 14 14 14 15 15 15 15 15 15 15 15 14 14 14 14 14 14 14
13 13 13 13 13 13 13 13 13 13 13 13 13 13 13 13 13 13 14 14 14 14 14 14 14 14 14 14 14 15 15 15 15 15 15 14 14 14 14 14 14 13 14
12 12 13 13 13 13 13 13 13 13 13 13 13 13 13 13 13 13 14 14 14 14 14 14 14 14 14 14 14 14 14 14 14 14 14 14 14 14 14 14 14 14 14
12 12 12 13 13 13 13 13 13 13 13 13 13 13 13 13 13 13 13 14 14 13 13 13 13 14 14 14 14 14 14 14 14 14 13 13 13 13 13 13 13 13 13
12 12 12 13 12 12 12 13 13 12 12 13 13 13 13 13 13 13 13 13 13 13 13 13 13 13 14 14 14 14 14 14 14 14 13 13 13 13 13 13 13 13 13
12 12 12 12 12 12 12 12 12 12 12 12 12 12 12 12 13 13 13 13 13 13 13 13 13 13 13 13 14 14 14 14 14 13 13 13 13 13 13 13 13 13 13
12 12 12 12 12 12 12 12 12 12 12 12 12 12 12 12 12 12 12 12 13 13 13 13 13 13 13 13 13 13 14 14 13 13 13 13 12 13 13 12 12 12 13
12 12 11 12 12 12 12 12 12 12 12 12 12 12 12 12 12 12 12 12 12 12 13 13 12 13 13 13 13 13 13 13 13 13 13 12 12 12 12 12 12 12 12
11 11 11 11 11 11 11 11 11 12 12 12 12 12 12 12 12 12 12 12 12 12 12 12 12 12 12 12 12 13 13 13 12 12 12 12 12 12 12 12 12 12 12
11 11 11 11 11 11 11 11 11 11 11 11 11 11 11 11 11 12 11 12 12 12 12 12 12 12 12 12 12 12 12 12 12 12 12 12 12 12 12 12 12 12 12
11 11 11 10 10 10 10 11 11 11 11 11 11 11 11 11 11 11 11 11 11 11 11 11 11 11 12 12 12 12 12 11 11 11 12 12 12 11 11 11 11 11 12
10 10 10 10 10 10 10 10 10 11 11 11 11 11 11 11 11 11 11 11 11 11 11 11 11 11 11 11 11 11 11 11 11 11 11 11 11 11 11 11 11 11 11
10 10 10 10 10 10 10 10 10 10 10 10 10 10 10 10 10 10 10 10 11 11 11 11 11 11 11 11 11 11 11 11 11 11 11 11 11 11 11 11 11 11 11
9 9 9 9 9 9 9 9 9 9 9 10 10 10 10 10 10 10 10 10 10 10 10 10 10 10 10 10 11 11 11 10 10 10 10 11 11 11 10 10 10 10 10
9 9 9 9 9 9 9 9 9 9 9 9 9 9 9 9 9 9 9 9 9 9 10 10 10 9 10 10 10 10 10 10 10 10 10 10 10 10 10 10 10 10 10
9 9 9 9 9 9 9 9 9 9 9 9 9 9 9 9 9 9 9 9 9 9 9 9 9 9 9 9 10 10 10 10 10 9 9 10 10 10 10 10 10 10 10
8 9 9 9 8 8 8 8 8 8 8 8 8 8 8 8 8 8 8 8 9 9 9 9 9 9 9 9 9 9 9 9 9 9 9 9 9 9 9 10 10 10 10
8 8 8 8 8 8 8 8 8 8 8 8 8 8 8 8 8 8 8 8 8 8 8 8 8 8 8 8 8 8 8 9 9 9 9 9 9 9 9 9 9 9 9
8 8 8 8 8 8 8 8 8 7 8 8 8 8 8 8 8 7 8 7 7 7 8 8 8 8 8 8 8 8 8 8 8 8 8 8 8 8 8 9 9 9 9
8 7 7 7 7 7 7 7 7 7 7 7 7 7 7 7 7 7 7 7 7 7 7 7 7 7 7 7 7 7 8 8 8 8 8 8 8 8 8 8 8 8 8
7 7 7 7 7 7 7 7 7 7 7 7 7 7 7 7 7 7 7 7 7 7 7 7 7 7 7 7 7 7 7 7 7 7 7 7 7 7 7 7 7 8 8
6 7 7 7 7 7 6 6 6 6 6 6 6 6 6 6 6 6 6 6 6 6 6 6 6 6 6 6 6 5 6 6 6 7 7 7 7 7 7 7 7 7 7
6 6 6 6 6 6 6 6 6 6 6 6 6 6 6 6 6 6 6 6 6 6 6 6 6 6 5 5 5 5 5 6 5 6 6 6 6 6 6 6 7 7 7
6 6 6 6 6 6 6 5 5 5 5 5 5 5 5 5 5 5 5 5 6 6 5 5 5 5 5 5 5 5 5 5 4 5 5 5 5 5 5 6 6 6 6
5 5 5 5 5 5 5 5 5 5 5 5 5 5 5 5 5 5 5 5 5 5 5 5 5 5 5 4 4 4 4 4 4 4 4 5 5 5 5 5 5 6 6
5 5 5 5 5 5 5 5 4 4 4 4 4 4 4 4 4 4 4 4 5 4 4 4 4 4 4 4 4 4 4 4 4 4 4 4 4 4 4 5 5 5 5
Wind_Speed
3 3 4 4 5 6 6 7 7 7 8 7 7 6 5 5 6 6 5 6 6 6 7 7 7 7 7 8 7 8 7 7 7 7 6 6 6 6 6 5 3 5 6
3 4 5 4 5 5 6 6 6 7 7 7 6 6 5 5 5 5 5 5 5 5 6 6 6 7 7 7 7 7 7 6 6 6 4 4 5 5 5 5 4 4 5
4 4 5 5 5 5 6 6 6 6 6 6 5 5 5 6 5 5 5 5 5 5 5 5 5 6 6 6 7 7 7 7 6 5 2 1 4 4 4 4 4 4 3
4 4 4 5 4 5 5 5 5 5 5 5 5 5 6 5 4 4 4 4 4 5 5 4 4 4 5 5 6 6 7 6 6 3 1 2 2 3 2 2 2 2 2
4 4 5 5 4 4 4 5 5 4 4 4 4 5 5 5 4 3 3 3 4 4 4 5 4 4 4 4 5 5 6 6 4 3 2 2 1 2 2 1 1 1 2
4 4 5 5 4 4 4 4 4 3 3 3 4 4 4 5 4 3 3 3 4 4 3 4 4 3 3 3 4 4 5 5 3 2 2 2 2 2 2 2 1 1 1
4 4 5 5 4 3 3 3 4 4 3 3 4 3 4 4 4 3 3 3 3 2 2 2 3 3 3 2 2 3 3 5 3 2 2 2 3 3 2 2 2 1 1
4 4 4 4 3 3 3 3 3 3 3 3 3 3 3 3 3 3 2 2 1 1 1 1 2 3 3 3 2 2 2 4 2 2 2 1 3 3 3 3 2 2 1
4 3 2 2 2 2 2 2 2 2 2 3 3 3 3 3 3 3 3 2 1 1 1 1 2 2 2 2 2 2 2 4 3 1 1 1 3 3 3 3 3 2 1
2 2 1 1 1 1 1 1 1 1 2 2 2 2 2 2 2 3 3 3 2 1 1 1 1 1 2 2 2 2 3 4 3 2 1 2 3 3 3 3 3 3 2
2 1 1 0 0 1 1 0 0 1 1 0 0 1 1 1 1 1 3 3 2 1 1 1 1 1 2 1 1 3 4 3 3 2 1 2 3 4 4 4 3 3 3
2 1 1 1 1 1 1 1 1 1 1 1 1 1 1 2 2 2 1 2 2 1 1 1 1 2 3 2 2 3 3 3 3 2 1 2 3 4 5 5 4 4 4
3 2 1 1 2 2 2 2 1 1 1 2 2 2 2 2 2 2 1 1 2 2 2 2 2 2 2 2 3 3 3 3 3 3 2 2 4 5 5 5 5 5 4
3 3 2 2 2 2 2 2 2 2 2 2 2 2 2 1 2 2 2 2 2 2 2 2 2 3 3 3 4 3 4 4 3 3 2 2 4 6 6 6 6 5 5
3 4 3 2 3 2 2 2 2 2 3 2 2 2 2 2 2 2 2 2 2 2 2 2 3 3 4 4 4 4 4 5 4 4 3 2 4 5 6 6 6 6 6
5 4 4 3 3 3 3 3 3 3 3 3 3 3 3 3 2 3 3 3 2 3 3 3 3 3 4 3 4 4 5 5 5 4 4 3 3 5 6 6 7 7 7
5 4 4 4 3 3 3 4 3 3 3 3 3 3 3 3 3 3 3 3 3 3 3 3 3 3 3 4 4 4 4 5 4 4 4 4 4 4 5 6 7 7 7
5 5 4 3 4 4 4 4 3 3 4 3 3 3 4 4 4 3 3 3 3 3 3 3 3 3 3 4 4 4 4 4 5 4 4 4 3 3 3 4 6 7 7
5 5 4 4 4 4 4 3 4 3 3 3 3 3 4 4 4 4 3 3 3 3 3 3 3 3 3 4 4 4 4 4 4 3 3 3 3 3 3 3 5 6 7
4 4 4 4 4 3 3 3 3 3 3 3 3 4 4 4 4 4 3 4 4 3 3 3 3 3 3 3 4 4 3 3 3 3 3 2 2 3 3 4 4 4 6
3 3 4 4 3 3 3 3 3 3 3 3 3 4 5 4 4 4 4 4 4 4 4 4 3 4 3 2 2 2 3 3 3 2 2 2 2 3 3 4 4 5 5
3 3 4 4 4 4 4 3 3 3 3 4 4 4 5 5 4 4 4 3 3 3 4 3 4 3 2 2 1 2 2 2 2 2 2 2 2 2 3 4 4 5 5
3 4 3 4 4 4 3 2 2 2 3 3 4 4 4 5 5 5 4 4 3 3 3 3 4 4 3 2 2 2 2 2 2 2 3 2 2 3 3 3 4 5 6
4 3 4 4 4 4 4 4 4 4 4 4 4 4 4 5 4 4 4 4 4 3 4 4 4 4 4 3 3 3 3 2 2 2 3 3 3 4 4 4 4 4 5
3 3 4 4 3 4 4 5 5 5 4 4 4 4 4 4 4 4 4 4 4 3 4 4 4 4 4 4 3 3 3 3 4 4 5 4 4 4 4 5 4 4 5
3 3 3 3 3 3 4 4 5 5 5 5 5 4 4 3 3 4 4 4 4 4 4 4 4 5 5 5 4 4 4 4 4 4 5 6 5 4 5 4 4 4 4
Wind_Direction
128 120 102 85 79 71 66 62 56 52 50 49 48 53 59 61 59 57 54 55 51 50 51 51 56 54 54 53 52 51 54 55 54 55 62 71 78 82 82 74 76 89 80
135 128 112 94 82 78 72 67 59 53 48 45 44 45 53 61 62 58 55 51 46 50 51 54 52 50 52 51 49 47 48 52 51 50 53 81 84 80 79 70 52 66 76
123 121 124 105 90 81 75 70 64 54 49 44 42 40 45 51 54 57 58 51 47 46 44 52 52 48 50 53 49 49 47 45 44 38 1 97 95 82 75 73 70 67 67
120 118 115 107 97 88 79 73 67 57 50 44 40 43 41 41 47 48 52 53 48 43 40 46 54 48 47 51 49 48 42 37 33 358 356 56 74 75 70 70 65 62 55
123 119 107 109 100 89 80 71 62 57 50 44 41 40 35 30 36 41 39 47 47 41 38 45 47 42 43 49 48 42 34 25 12 334 18 26 60 66 50 50 57 46 55
126 121 113 111 105 92 78 67 56 49 48 47 43 35 30 30 28 34 37 47 47 40 36 38 36 37 39 45 43 36 27 7 326 356 3 7 30 57 34 24 20 39 50
124 116 117 106 102 94 80 65 51 49 51 45 36 32 29 28 27 26 36 50 50 40 32 33 28 23 29 28 22 20 17 352 331 356 355 359 26 25 23 17 14 1 8
123 115 116 113 99 85 74 64 52 43 44 42 37 32 24 21 20 21 23 29 62 48 36 31 28 9 15 15 6 6 356 328 308 325 322 351 26 8 1 345 334 341 320
126 124 120 130 130 111 80 58 46 35 32 37 41 34 26 23 19 15 8 9 41 45 32 32 26 11 359 352 359 353 331 319 292 301 312 348 8 347 347 348 341 349 342
133 132 130 138 150 162 146 80 37 22 14 29 42 35 26 28 31 18 3 5 7 19 3 10 10 353 339 333 337 327 295 280 271 271 292 350 348 326 328 328 322 323 322
150 148 140 159 220 248 245 217 192 51 23 335 26 33 358 331 328 340 358 352 345 3 353 330 296 313 296 283 293 291 265 269 264 267 280 343 323 312 312 320 307 305 308
209 216 204 241 268 273 275 253 245 257 263 266 273 283 285 309 314 310 339 336 324 300 277 290 280 262 269 268 249 258 258 271 260 251 274 323 304 304 304 305 302 293 290
225 238 253 263 254 252 260 263 267 268 269 269 278 276 270 284 295 295 297 267 276 260 271 271 263 276 279 283 274 268 268 271 253 255 266 285 290 294 299 300 294 292 280
253 246 256 272 266 253 257 260 266 271 271 273 277 278 270 277 288 293 290 288 285 281 285 283 289 279 272 266 266 265 262 260 247 255 263 276 282 286 291 294 287 288 279
249 254 249 256 259 256 250 256 261 268 270 269 267 265 265 270 275 282 286 288 286 289 276 279 279 279 271 265 262 261 261 259 247 248 252 255 275 282 284 287 288 279 279
248 257 251 245 250 249 247 250 252 252 254 261 260 264 262 263 269 276 277 280 282 284 282 272 273 274 275 269 262 260 262 257 247 251 257 251 254 275 281 284 289 286 282
256 256 259 243 246 248 249 250 250 245 245 250 255 256 259 260 261 268 274 274 277 277 275 268 265 270 272 269 264 261 263 252 246 252 254 257 254 257 273 282 288 288 288
257 256 260 249 242 247 251 247 246 244 244 248 254 257 256 251 250 259 268 271 270 270 268 264 259 263 266 271 272 268 263 247 239 246 250 251 258 267 269 280 286 289 287
249 250 254 254 242 248 253 247 247 249 248 248 249 253 256 255 251 253 260 264 263 265 265 265 260 261 268 276 275 271 263 251 241 238 242 250 259 272 280 288 284 290 295
248 247 246 256 247 245 247 247 246 249 250 250 249 249 252 251 250 252 256 254 255 255 257 258 263 256 262 276 276 273 267 263 249 236 237 248 265 280 285 291 291 295 295
250 248 242 253 246 234 235 238 243 250 254 254 251 249 249 250 247 252 259 256 253 246 248 254 261 252 256 269 274 277 263 248 242 253 255 263 272 286 291 294 295 298 297
249 251 252 259 246 234 237 240 247 254 259 261 258 257 253 251 246 248 249 249 254 250 247 252 252 246 252 243 248 269 271 235 220 250 247 258 279 288 291 294 296 295 294
258 256 258 265 251 236 236 235 237 249 255 253 255 256 256 251 247 246 246 250 252 255 256 253 245 229 231 244 251 250 239 252 300 248 249 251 275 288 292 297 296 297 294
270 269 263 269 250 234 225 224 227 241 257 264 263 261 261 252 249 249 252 253 250 252 255 251 244 234 227 236 249 258 265 258 261 277 259 260 278 279 285 288 287 288 289
271 275 269 272 253 239 232 229 232 244 256 265 263 262 265 265 260 257 254 254 253 253 254 251 244 241 235 236 239 242 248 253 247 247 268 276 279 275 280 281 282 284 285
281 285 286 281 261 248 239 236 237 244 254 262 262 262 263 265 263 261 259 256 255 253 253 247 243 243 239 235 238 237 235 235 236 237 255 270 279 279 284 276 278 281 288
Height
1523 1523 1524 1525 1525 1525 1525 1525 1524 1524 1524 1523 1523 1522 1522 1522 1521 1521 1521 1521 1520 1520 1520 1520 1520 1519 1519 1518 1518 1518 1517 1517 1517 1517 1517 1517 1517 1516 1516 1516 1516 1516 1515
1522 1523 1523 1524 1525 1525 1525 1524 1524 1524 1523 1523 1523 1522 1522 1521 1521 1520 1520 1520 1520 1520 1520 1519 1519 1519 1518 1518 1517 1517 1517 1517 1517 1517 1517 1517 1517 1516 1516 1516 1515 1516 1515
1522 1523 1523 1524 1524 1524 1524 1524 1524 1524 1523 1523 1522 1522 1522 1521 1520 1520 1519 1519 1519 1519 1519 1519 1518 1518 1518 1518 1517 1517 1516 1516 1516 1516 1517 1517 1517 1516 1516 1515 1515 1515 1515
1522 1523 1523 1523 1524 1524 1524 1524 1523 1523 1523 1522 1522 1522 1521 1520 1520 1519 1519 1519 1518 1518 1518 1518 1518 1517 1517 1517 1516 1516 1516 1516 1516 1516 1517 1517 1516 1516 1515 1515 1514 1514 1514
1522 1522 1522 1523 1523 1523 1523 1523 1523 1523 1522 1522 1521 1521 1520 1520 1519 1519 1518 1518 1517 1517 1517 1517 1517 1516 1516 1516 1516 1515 1515 1515 1515 1515 1516 1516 1515 1515 1514 1514 1514 1514 1513
1521 1522 1522 1522 1523 1523 1523 1522 1522 1522 1521 1521 1521 1520 1519 1519 1518 1518 1517 1517 1516 1516 1516 1516 1516 1515 1515 1515 1515 1514 1514 1514 1514 1515 1515 1515 1515 1514 1514 1513 1513 1513 1513
1521 1521 1521 1521 1522 1522 1522 1521 1521 1521 1520 1520 1519 1519 1518 1518 1517 1517 1516 1516 1515 1515 1515 1514 1514 1514 1514 1513 1513 1513 1513 1513 1513 1513 1513 1513 1513 1513 1512 1512 1512 1512 1512
1520 1520 1520 1520 1521 1521 1521 1520 1520 1520 1519 1519 1518 1518 1517 1517 1516 1516 1515 1515 1514 1514 1513 1513 1513 1512 1512 1512 1512 1512 1512 1512 1512 1512 1512 1512 1511 1511 1511 1511 1511 1510 1510
1519 1519 1519 1520 1519 1519 1519 1519 1519 1518 1518 1517 1517 1516 1516 1515 1515 1514 1514 1513 1513 1512 1512 1511 1511 1511 1511 1510 1510 1510 1510 1510 1511 1511 1510 1510 1510 1509 1509 1509 1509 1509 1509
1518 1518 1518 1518 1518 1518 1518 1517 1517 1517 1516 1515 1515 1514 1514 1513 1513 1512 1512 1511 1511 1510 1510 1510 1509 1509 1509 1509 1508 1508 1508 1508 1509 1509 1509 1508 1508 1508 1508 1507 1507 1507 1507
1516 1516 1516 1516 1516 1516 1516 1515 1515 1515 1514 1514 1513 1512 1512 1511 1511 1510 1510 1509 1509 1509 1508 1508 1507 1507 1507 1507 1507 1506 1507 1507 1507 1506 1506 1506 1506 1506 1505 1505 1505 1505 1505
1514 1514 1514 1514 1514 1514 1514 1513 1513 1513 1512 1511 1511 1510 1510 1509 1509 1508 1508 1507 1507 1507 1506 1505 1505 1505 1505 1505 1504 1504 1504 1504 1504 1504 1504 1503 1503 1504 1503 1503 1503 1503 1502
1513 1512 1512 1512 1512 1512 1511 1511 1511 1510 1510 1509 1508 1508 1507 1507 1506 1506 1505 1505 1504 1504 1504 1503 1503 1502 1502 1502 1502 1502 1502 1502 1501 1501 1501 1500 1501 1501 1501 1501 1500 1500 1500
1510 1510 1510 1510 1510 1509 1509 1509 1508 1508 1507 1506 1506 1505 1505 1504 1504 1503 1503 1502 1502 1501 1501 1500 1500 1499 1499 1499 1499 1499 1499 1499 1499 1498 1498 1498 1498 1498 1498 1498 1498 1498 1498
1507 1507 1507 1507 1507 1507 1506 1506 1506 1505 1504 1504 1503 1502 1502 1501 1501 1500 1500 1499 1499 1498 1498 1497 1497 1497 1497 1496 1496 1496 1496 1496 1495 1495 1495 1495 1495 1495 1495 1495 1495 1495 1495
1505 1505 1505 1504 1504 1504 1503 1503 1503 1502 1501 1501 1500 1500 1499 1498 1498 1497 1497 1496 1496 1495 1495 1495 1494 1494 1494 1493 1493 1493 1492 1492 1492 1492 1492 1492 1492 1492 1492 1492 1492 1492 1491
1502 1502 1502 1502 1501 1501 1500 1500 1499 1499 1498 1498 1497 1496 1496 1495 1495 1494 1494 1493 1492 1492 1492 1491 1491 1491 1491 1490 1490 1489 1489 1489 1488 1488 1489 1489 1489 1488 1488 1488 1488 1488 1488
1499 1499 1499 1498 1498 1498 1497 1497 1496 1496 1495 1495 1494 1493 1493 1492 1491 1491 1490 1489 1489 1488 1488 1488 1488 1488 1488 1488 1487 1486 1486 1486 1485 1485 1485 1485 1485 1485 1485 1485 1484 1484 1484
1496 1496 1495 1495 1495 1494 1494 1493 1493 1492 1492 1491 1490 1490 1489 1488 1488 1487 1486 1486 1485 1485 1484 1485 1484 1484 1484 1484 1484 1483 1483 1482 1482 1482 1482 1482 1482 1482 1482 1481 1481 1481 1480
1492 1492 1492 1491 1491 1491 1490 1490 1489 1489 1488 1488 1487 1486 1486 1485 1484 1483 1483 1482 1482 1481 1481 1481 1481 1481 1481 1481 1481 1480 1480 1479 1479 1478 1479 1479 1479 1479 1478 1478 1478 1477 1477
1488 1488 1488 1487 1487 1487 1486 1486 1485 1485 1485 1484 1483 1483 1482 1481 1480 1480 1479 1478 1478 1478 1477 1477 1477 1477 1478 1478 1478 1477 1477 1476 1476 1476 1476 1476 1476 1475 1475 1475 1474 1474 1473
1485 1485 1484 1484 1484 1483 1483 1483 1482 1482 1481 1481 1480 1479 1478 1477 1476 1476 1476 1475 1474 1474 1474 1474 1474 1474 1474 1474 1475 1474 1474 1475 1473 1473 1473 1473 1473 1472 1472 1471 1471 1470 1470
1481 1481 1481 1481 1480 1480 1480 1479 1479 1478 1478 1477 1476 1475 1474 1474 1473 1473 1472 1471 1471 1471 1470 1470 1471 1471 1471 1471 1472 1473 1473 1472 1471 1471 1470 1470 1469 1469 1469 1468 1468 1467 1466
1478 1478 1478 1477 1477 1476 1476 1476 1475 1475 1474 1473 1472 1471 1470 1470 1469 1468 1468 1468 1468 1468 1468 1467 1467 1468 1468 1468 1469 1469 1470 1469 1469 1468 1468 1467 1467 1466 1466 1465 1464 1464 1463
1475 1475 1475 1474 1474 1473 1473 1472 1472 1471 1471 1470 1469 1468 1467 1466 1465 1465 1465 1465 1464 1465 1465 1464 1464 1465 1465 1466 1466 1466 1466 1466 1466 1466 1465 1464 1464 1463 1463 1462 1461 1460 1459
1472 1472 1471 1471 1470 1470 1469 1469 1468 1468 1467 1466 1466 1465 1463 1462 1462 1462 1461 1461 1461 1461 1461 1461 1461 1462 1462 1462 1463 1463 1463 1463 1462 1462 1462 1460 1460 1459 1459 1458 1457 1457 1456